Location: ?????????
(44.2517°N, 135.2292°E)
Time: 04:01:39
(UTC+00:00)

Cosmos 1933 Rocket - Pass Details

Date: 19 May 2025
Orbit: 602 x 623 km, 82.5° (Epoch: 15 June)

Event Time Altitude Azimuth Distance (km) Brightness Sun altitude
Rises 16:30:34 0° 348° (NNW) 2,915 7.8 -22.2°
Reaches altitude 10° 16:32:50 10° 344° (NNW) 2,004 6.8 -22.1°
Maximum altitude 16:37:12 60° 265° (W) 715 3.6 -21.7°
Enters shadow 16:37:30 58° 245° (WSW) 726 3.6 -21.7°
